This is the latest recevied weather packets stored in our database for station/object Waldburg. If no packets are shown the sender has not sent any weather packets the latest 10 day(s).
| Time | Temp. | Humidity | Pressure | Rain* | Wind** | Luminosity | Snow |
|---|---|---|---|---|---|---|---|
| 1778148132 | 11.11° C | 85% | 1013.9 hPa | 2.29 mm | - | - | - |
| 1778146331 | 10° C | 90% | 1013.8 hPa | 2.29 mm | - | - | - |
| 1778144531 | 8.89° C | 93% | 1013.6 hPa | 2.29 mm | - | - | - |
| 1778142732 | 8.89° C | 92% | 1013.4 hPa | 2.03 mm | - | - | - |
| 1778140931 | 8.33° C | 93% | 1013.2 hPa | 2.03 mm | - | - | - |
| 1778139132 | 8.33° C | 94% | 1013.1 hPa | 2.03 mm | - | - | - |
| 1778137332 | 7.78° C | 95% | 1012.8 hPa | 1.78 mm | - | - | - |
| 1778135532 | 7.78° C | 95% | 1012.6 hPa | 1.78 mm | - | - | - |
| 1778133731 | 7.78° C | 94% | 1012.3 hPa | 1.52 mm | - | - | - |
| 1778131931 | 7.78° C | 94% | 1012.2 hPa | 0.51 mm | - | - | - |
| 1778130133 | 7.78° C | 93% | 1011.8 hPa | 0.25 mm | - | - | - |
| 1778128331 | 7.78° C | 92% | 1011.5 hPa | 0 mm | - | - | - |
| 1778126536 | 7.78° C | 92% | 1011.2 hPa | 0 mm | - | - | - |
| 1778124731 | 7.78° C | 93% | 1011.1 hPa | 0 mm | - | - | - |
| 1778122931 | 7.22° C | 92% | 1011 hPa | 0 mm | - | - | - |
| 1778121132 | 7.78° C | 92% | 1011 hPa | 0 mm | - | - | - |
| 1778119332 | 7.78° C | 91% | 1010.9 hPa | 0 mm | - | - | - |
| 1778117533 | 7.78° C | 91% | 1010.4 hPa | 0 mm | - | - | - |
| 1778115731 | 7.78° C | 92% | 1010.2 hPa | 0 mm | - | - | - |
| 1778113929 | 7.22° C | 94% | 1010.2 hPa | 0 mm | - | - | - |
| 1778112129 | 7.22° C | 93% | 1010.2 hPa | 0 mm | - | - | - |
| 1778110329 | 7.22° C | 93% | 1010.1 hPa | 0 mm | - | - | - |
| 1778108530 | 7.22° C | 94% | 1009.8 hPa | 0 mm | - | - | - |
| 1778106729 | 7.22° C | 94% | 1009.9 hPa | 0 mm | - | - | - |
| 1778104929 | 7.22° C | 94% | 1009.7 hPa | 0 mm | - | - | - |
* Rain since midnight (hover to see other rain measurements)
** Current wind speed in m/s (hover to see current wind gust speed)